Vorticity
11 11 11 10 10 11 11 11 12 12 13 14 15 16 17 17 18 18 17 16 15 15 14 13 11 9 7 4 2 0 -0 -2 -2 -1 -1 -1 -0 1 2 3 4 6 7 8 9 10 11 11 12 12 13 13 13 14 15 16 17 18 19 20 20 20 21 21 20 20 20 19 19
12 12 11 11 11 11 12 12 13 13 14 15 16 17 17 17 17 16 15 14 13 11 10 8 5 3 1 0 -1 -2 -1 -0 1 1 1 1 2 3 4 6 7 9 10 12 13 14 14 15 16 16 16 17 17 18 20 21 22 23 24 25 25 24 24 23 21 20 18 17 17
12 12 12 12 12 12 12 13 13 14 15 16 16 16 16 15 14 13 12 11 9 6 4 2 1 -0 -1 0 -0 -0 0 1 2 3 4 4 5 6 7 8 10 11 13 14 15 16 17 18 19 19 20 21 22 22 23 24 25 26 26 25 25 25 25 24 23 21 18 16 16
12 12 12 12 12 12 12 13 14 15 16 16 15 14 13 12 11 9 8 7 4 2 0 0 0 0 0 1 2 2 2 3 3 4 5 6 7 8 9 10 11 12 13 15 16 17 18 20 21 22 23 23 24 24 24 24 24 24 24 23 23 23 23 23 23 22 20 16 15
12 11 11 11 11 12 13 14 15 15 15 14 13 12 11 9 8 7 5 3 1 1 1 1 1 2 2 2 3 3 4 4 5 6 7 8 9 10 11 12 13 13 14 16 17 19 20 21 22 23 23 24 24 23 23 22 22 21 20 20 20 20 20 20 21 22 22 19 16
11 11 11 11 12 13 14 15 15 14 14 12 11 10 9 7 6 4 2 1 1 1 2 2 2 3 4 4 4 5 5 6 7 8 10 11 11 12 13 14 14 15 16 18 19 20 21 21 21 21 21 21 20 20 19 19 18 17 17 17 17 17 17 17 18 20 21 22 19
11 11 11 12 13 14 15 15 14 13 12 11 9 8 7 5 3 2 2 2 2 3 3 3 4 4 5 5 6 7 8 9 10 11 12 12 13 13 14 15 16 17 18 19 20 20 20 19 18 17 17 17 16 16 15 15 15 14 14 14 14 15 15 15 16 17 19 21 21
11 11 12 13 14 14 15 14 13 12 10 9 7 6 4 3 2 2 2 3 3 4 4 4 5 5 6 7 8 9 10 11 12 13 13 13 13 14 15 16 17 18 19 19 19 18 17 17 16 15 14 14 14 13 13 13 13 13 13 13 13 14 14 14 15 15 16 18 20
12 12 13 14 14 14 14 13 11 10 9 7 5 4 3 2 2 3 4 4 4 4 5 5 6 7 8 9 11 12 12 13 13 13 13 13 14 15 16 17 18 18 18 18 17 16 15 14 14 13 13 13 13 13 13 13 14 14 14 14 14 14 15 15 15 16 16 16 17
13 13 14 14 14 14 13 11 10 8 6 5 4 3 2 3 3 4 4 5 5 5 6 7 8 9 11 12 12 13 13 13 13 13 13 14 15 16 17 18 18 17 17 16 15 14 13 13 13 13 13 14 15 15 15 16 17 17 17 17 16 16 17 17 17 17 17 17 17
13 14 14 14 14 13 11 10 8 6 4 3 3 3 3 4 4 5 5 5 6 7 8 9 10 11 12 12 12 12 12 12 13 13 14 16 17 18 18 17 16 15 14 13 13 13 13 14 15 16 17 18 19 20 20 21 21 21 21 21 21 20 20 20 20 20 20 19 19
14 14 14 14 13 11 10 8 6 4 3 3 3 3 4 4 5 5 6 7 8 9 9 10 12 12 12 12 12 12 12 13 14 15 16 17 17 17 16 15 14 13 13 13 14 15 16 18 19 21 22 24 25 26 26 27 27 26 26 25 25 25 24 24 24 24 23 23 22
14 14 14 13 11 9 7 5 4 3 3 3 4 4 5 5 5 6 7 9 9 10 10 11 12 12 12 12 12 13 14 15 16 17 17 17 16 15 14 13 13 13 15 16 18 20 23 25 26 28 29 30 31 32 32 31 31 30 29 28 28 28 27 27 27 27 27 26 25
14 14 12 11 8 6 5 3 3 3 3 4 4 5 5 5 6 7 9 10 10 11 11 11 12 12 12 13 14 15 15 16 16 16 15 14 13 13 13 14 15 17 20 22 25 28 30 31 33 34 34 34 34 34 34 33 32 31 30 29 29 28 28 28 28 28 29 29 29
13 11 10 7 5 4 3 3 3 3 4 4 5 5 6 6 8 9 10 11 11 11 11 11 12 12 13 14 15 15 15 15 14 14 13 12 13 14 16 18 21 24 27 29 32 33 35 35 35 35 34 33 33 32 32 31 31 30 30 29 29 28 28 27 27 27 28 30 30
10 9 7 5 4 3 3 3 4 4 5 5 5 6 7 8 9 10 11 12 11 11 11 12 12 13 14 15 15 14 14 13 13 12 13 14 16 19 22 25 28 31 33 34 35 35 36 35 34 33 32 31 30 30 29 29 29 29 29 29 29 28 28 27 27 27 28 29 30
8 6 4 3 3 3 3 4 4 5 5 6 7 8 9 10 10 11 12 12 11 11 12 13 13 14 14 14 14 13 12 12 13 14 16 19 22 26 29 32 34 35 35 35 35 34 33 32 31 30 30 30 30 29 29 29 29 29 29 29 29 29 29 29 28 28 28 29 30
6 5 3 3 3 3 4 4 5 6 7 7 8 9 10 11 11 11 11 11 12 12 13 13 14 14 13 13 12 12 12 13 15 19 22 26 29 32 34 35 36 35 35 34 33 32 31 30 30 30 30 30 30 30 29 29 29 28 28 28 28 28 28 28 28 28 29 29 31
5 4 3 3 3 4 4 5 6 7 8 9 9 10 10 11 11 11 11 12 13 13 13 13 13 13 12 12 12 13 15 18 21 25 29 33 34 35 36 35 34 33 32 31 31 30 30 30 30 29 29 28 27 27 26 26 25 25 25 26 26 26 27 27 27 28 28 29 31
4 4 3 3 4 5 5 7 8 8 9 9 10 10 10 11 11 11 12 12 13 13 13 12 12 12 12 12 14 17 21 25 29 32 34 36 36 36 34 33 31 30 30 30 30 30 29 29 27 26 25 23 22 22 21 21 22 22 23 24 25 26 27 27 28 28 28 29 30
4 4 4 4 5 6 7 8 9 9 9 9 9 10 10 11 12 12 12 12 12 12 12 11 11 12 13 15 19 23 28 32 35 36 36 36 35 33 31 30 29 29 30 30 29 28 26 24 22 20 19 18 18 18 18 18 19 21 22 23 24 26 27 28 29 29 30 30 31
4 4 4 5 6 7 8 9 9 9 9 9 9 10 11 11 12 12 12 12 11 11 11 11 12 14 17 21 26 30 33 36 37 36 35 33 31 30 29 29 29 29 28 27 25 23 20 18 17 16 15 15 15 16 16 17 18 18 19 20 22 23 25 26 28 29 31 32 32
4 5 6 7 8 8 8 8 8 8 9 9 10 11 11 12 12 11 11 11 11 11 11 12 15 18 23 28 32 35 36 36 35 34 32 30 28 28 28 28 28 27 25 22 20 18 16 15 14 14 14 15 15 16 16 16 16 16 16 16 16 17 18 20 22 24 26 28 31
5 6 7 8 8 8 8 7 8 8 9 10 11 11 11 12 11 11 11 11 11 12 13 16 20 25 30 34 37 37 36 34 31 30 28 28 28 28 28 27 25 23 20 17 15 14 14 14 14 14 14 15 15 15 15 14 13 12 12 11 10 10 10 10 11 12 14 17 21
6 7 8 8 8 8 7 8 8 9 10 10 11 11 12 12 11 11 11 11 12 14 17 21 26 31 35 38 38 36 33 30 28 27 27 28 28 27 26 23 20 18 16 14 13 13 13 13 13 14 14 14 14 13 12 11 10 9 9 8 7 6 5 5 4 4 5 6 8
7 8 8 8 7 7 8 9 9 9 10 11 11 12 12 12 11 11 11 12 14 18 23 28 33 36 38 37 34 32 29 27 26 26 28 29 27 25 22 19 17 15 14 13 13 13 13 13 12 12 12 11 10 9 8 7 7 6 6 5 5 6 6 6 6 6 5 5 4
8 8 8 7 7 8 8 9 9 10 11 12 12 12 12 11 11 11 12 15 19 23 29 35 38 38 36 33 30 27 26 25 26 27 27 27 24 21 18 15 14 13 13 12 12 12 12 12 12 11 10 9 8 6 5 4 3 2 3 3 4 5 6 8 9 11 11 11 10
8 8 7 7 8 8 8 9 10 11 12 13 12 12 11 10 11 13 15 19 24 29 35 39 39 36 32 29 26 25 24 25 26 26 25 23 20 17 15 13 13 12 12 12 12 12 12 12 12 11 10 9 7 5 3 1 1 2 3 4 5 6 7 8 10 12 14 16 16
8 7 7 8 8 8 9 10 12 12 13 12 11 11 10 11 13 16 20 24 30 35 39 39 35 32 28 25 23 23 24 25 25 24 22 19 16 14 13 12 12 11 11 11 11 12 12 12 12 11 10 9 7 5 3 3 5 7 10 12 12 11 11 10 10 11 13 15 16
8 8 8 8 8 9 11 12 13 13 12 11 10 10 11 13 16 20 26 31 36 39 38 34 31 27 24 22 22 23 25 24 23 21 18 16 14 13 12 11 11 10 10 10 11 11 11 11 11 11 10 9 8 6 6 7 10 13 15 18 19 19 18 17 15 14 14 14 15
8 8 8 8 9 11 12 13 13 12 11 10 10 11 13 16 21 26 31 36 37 37 35 31 26 23 21 21 23 24 24 23 20 17 15 14 13 12 11 10 10 10 10 10 11 11 11 11 11 10 9 8 7 6 6 7 10 12 15 19 21 23 24 23 22 20 19 17 17
8 8 9 9 11 12 12 12 12 11 10 10 11 13 16 21 26 31 35 38 36 33 30 26 22 21 21 22 23 23 22 20 17 15 14 13 12 11 10 10 9 9 9 10 10 11 11 11 11 9 8 5 3 3 3 6 9 12 15 19 21 23 25 25 24 23 22 21 20
8 9 10 11 12 12 12 12 10 10 10 10 13 16 21 25 30 34 37 37 34 30 25 21 20 20 21 23 23 22 19 17 15 14 13 12 12 11 10 9 9 9 10 10 11 11 11 12 10 8 6 3 2 3 5 8 11 13 16 18 20 22 23 23 22 21 21 20 21
9 10 11 12 12 12 11 10 10 10 10 12 16 20 25 30 34 36 37 34 30 25 22 20 20 21 22 23 22 20 17 15 13 13 12 12 11 10 10 9 10 10 10 11 11 12 12 12 11 9 8 7 7 8 10 12 13 14 15 17 19 20 21 20 19 18 17 16 17
9 10 12 12 12 11 10 9 9 10 12 15 20 25 30 35 36 36 33 29 25 22 20 20 21 22 22 22 19 17 15 14 12 12 11 11 11 10 10 10 11 11 11 11 12 12 12 12 12 12 12 13 14 14 14 14 13 13 13 14 17 19 20 19 17 15 14 13 13
10 11 12 11 11 10 9 9 10 12 15 19 24 29 33 37 37 34 29 25 22 20 20 21 22 22 21 20 17 15 13 13 12 11 11 11 11 11 11 12 12 12 11 11 11 11 11 12 13 14 16 17 18 17 15 13 11 10 10 11 14 16 18 19 17 15 13 12 12
11 11 11 10 10 9 9 10 12 15 19 24 28 32 35 36 34 30 26 21 20 20 21 22 22 21 20 18 16 14 12 12 11 11 11 11 11 12 12 12 12 11 11 10 10 10 10 11 13 15 17 19 19 18 16 14 11 10 9 9 11 13 15 16 16 15 14 12 12
11 11 10 9 9 9 10 11 14 18 23 27 32 34 35 34 31 26 22 19 19 21 22 22 21 20 19 17 14 12 11 11 11 11 11 11 12 12 13 12 11 11 10 10 9 9 9 10 11 14 16 18 20 20 20 17 14 12 11 11 11 11 12 13 13 14 14 13 13
10 10 9 9 9 10 11 14 18 22 26 30 33 35 34 32 27 23 20 18 20 21 22 22 20 19 17 15 13 11 10 11 11 11 12 12 12 12 12 11 11 10 10 9 9 8 7 7 9 11 13 15 18 20 21 21 19 19 18 18 17 15 13 11 11 11 12 13 13
9 9 9 9 10 11 13 17 21 25 29 32 34 33 31 28 23 20 18 18 20 21 22 21 19 17 16 14 11 10 10 10 11 12 12 12 11 11 10 10 10 10 10 9 8 7 6 6 7 9 11 11 13 15 17 19 22 25 28 29 27 23 19 15 12 11 11 12 13
9 8 9 9 11 13 16 20 24 28 31 34 33 31 28 24 20 19 18 19 21 22 21 20 18 16 14 12 10 9 9 10 11 12 12 11 11 10 10 10 11 10 10 9 7 6 5 5 6 7 8 9 10 12 14 18 24 29 33 35 35 32 28 22 17 14 12 11 12
Height
5600 5599 5597 5595 5593 5591 5590 5588 5586 5585 5583 5582 5580 5578 5577 5576 5574 5572 5570 5569 5567 5565 5563 5562 5561 5559 5558 5556 5555 5554 5552 5551 5550 5548 5546 5545 5543 5541 5540 5538 5536 5535 5533 5531 5529 5528 5526 5525 5523 5522 5521 5520 5520 5520 5520 5521 5521 5521 5521 5521 5522 5522 5522 5521 5520 5519 5519 5521 5522
5595 5593 5591 5589 5587 5586 5584 5582 5581 5579 5577 5576 5575 5573 5571 5570 5568 5566 5564 5563 5561 5559 5557 5556 5555 5554 5552 5551 5549 5548 5546 5544 5543 5541 5540 5539 5537 5535 5533 5531 5529 5527 5526 5524 5522 5520 5518 5517 5515 5514 5513 5512 5512 5512 5512 5511 5511 5511 5511 5512 5512 5513 5514 5515 5514 5513 5512 5512 5513
5590 5588 5586 5584 5582 5580 5579 5577 5575 5574 5572 5570 5569 5567 5565 5564 5562 5560 5558 5556 5555 5554 5552 5551 5549 5548 5547 5545 5543 5542 5540 5538 5536 5535 5533 5532 5530 5528 5526 5524 5522 5520 5518 5516 5514 5512 5510 5508 5507 5505 5504 5504 5503 5503 5503 5502 5502 5502 5502 5502 5503 5504 5505 5506 5506 5506 5506 5506 5506
5584 5582 5580 5578 5576 5575 5573 5571 5570 5568 5566 5565 5563 5561 5560 5558 5556 5554 5553 5551 5550 5548 5547 5546 5544 5543 5541 5540 5538 5536 5534 5532 5530 5528 5526 5525 5523 5521 5519 5517 5515 5513 5511 5509 5507 5505 5502 5500 5498 5497 5496 5495 5495 5494 5494 5494 5493 5493 5493 5493 5493 5495 5496 5496 5498 5499 5499 5499 5499
5579 5577 5575 5573 5571 5569 5568 5566 5564 5563 5561 5560 5558 5556 5554 5552 5551 5549 5548 5546 5545 5544 5542 5541 5539 5537 5536 5534 5532 5530 5528 5526 5524 5521 5519 5517 5516 5514 5512 5510 5507 5505 5503 5501 5499 5497 5495 5492 5490 5488 5487 5486 5486 5485 5485 5484 5484 5484 5484 5484 5485 5486 5486 5487 5489 5490 5491 5492 5492
5573 5571 5570 5568 5566 5564 5563 5561 5559 5558 5556 5554 5552 5551 5549 5547 5546 5544 5543 5542 5540 5539 5537 5536 5534 5532 5530 5528 5526 5524 5521 5519 5517 5515 5512 5510 5508 5506 5504 5502 5500 5497 5495 5493 5491 5489 5486 5484 5482 5480 5479 5478 5477 5476 5476 5475 5475 5474 5474 5475 5476 5477 5478 5479 5480 5481 5482 5483 5485
5568 5566 5565 5563 5561 5560 5558 5556 5555 5553 5551 5549 5547 5546 5544 5543 5541 5540 5539 5537 5536 5534 5532 5530 5528 5526 5524 5522 5520 5517 5515 5512 5510 5507 5505 5503 5501 5498 5496 5494 5491 5489 5487 5485 5482 5480 5478 5476 5474 5472 5471 5470 5469 5468 5467 5466 5465 5465 5465 5466 5466 5468 5469 5470 5471 5472 5474 5475 5476
5564 5562 5560 5558 5556 5555 5553 5551 5550 5548 5546 5544 5543 5541 5540 5538 5537 5535 5534 5532 5531 5529 5527 5524 5522 5520 5517 5515 5512 5510 5508 5505 5503 5500 5497 5495 5493 5490 5488 5485 5483 5481 5478 5476 5474 5471 5469 5467 5466 5464 5462 5461 5461 5459 5458 5457 5456 5455 5455 5456 5456 5458 5459 5460 5461 5463 5465 5466 5467
5559 5557 5556 5554 5552 5550 5548 5546 5545 5543 5541 5540 5538 5537 5535 5534 5532 5531 5529 5527 5525 5523 5521 5518 5516 5513 5511 5508 5505 5503 5500 5497 5495 5492 5490 5487 5485 5482 5479 5476 5474 5472 5469 5467 5465 5462 5460 5458 5457 5456 5454 5453 5451 5450 5449 5449 5447 5446 5445 5446 5446 5448 5449 5451 5452 5453 5455 5456 5458
5555 5553 5551 5549 5547 5546 5544 5542 5541 5539 5537 5536 5534 5533 5531 5529 5527 5526 5523 5521 5519 5517 5514 5512 5509 5506 5503 5501 5498 5495 5492 5489 5487 5484 5481 5479 5476 5473 5470 5467 5465 5463 5460 5458 5455 5453 5451 5449 5448 5446 5445 5444 5442 5441 5440 5439 5438 5437 5436 5436 5437 5438 5439 5441 5442 5444 5445 5447 5449
5551 5549 5547 5545 5543 5541 5540 5538 5536 5535 5533 5531 5530 5528 5526 5524 5522 5520 5517 5515 5513 5510 5507 5505 5502 5499 5496 5493 5490 5487 5484 5481 5478 5475 5473 5470 5467 5464 5461 5458 5456 5453 5451 5448 5446 5443 5441 5439 5438 5437 5436 5435 5433 5432 5431 5430 5429 5428 5427 5426 5427 5428 5429 5430 5432 5434 5435 5437 5439
5546 5544 5542 5541 5539 5537 5536 5534 5532 5531 5529 5527 5525 5523 5521 5519 5516 5514 5511 5508 5506 5503 5501 5498 5495 5491 5488 5485 5482 5479 5476 5473 5470 5467 5464 5461 5458 5455 5452 5450 5447 5444 5441 5439 5436 5434 5431 5430 5428 5427 5426 5425 5424 5422 5421 5421 5420 5419 5418 5417 5418 5418 5419 5420 5422 5424 5425 5427 5429
5542 5540 5538 5536 5535 5533 5531 5530 5528 5526 5524 5522 5520 5518 5516 5513 5510 5507 5505 5502 5499 5496 5494 5491 5487 5484 5481 5477 5474 5471 5468 5465 5461 5458 5455 5452 5450 5447 5444 5441 5438 5435 5432 5430 5427 5425 5422 5420 5419 5417 5416 5415 5414 5413 5412 5411 5411 5410 5410 5410 5409 5410 5410 5411 5412 5414 5415 5417 5419
5538 5536 5534 5532 5531 5529 5527 5525 5523 5521 5520 5517 5515 5512 5510 5507 5504 5501 5498 5495 5492 5489 5486 5483 5480 5477 5473 5470 5466 5463 5459 5456 5453 5450 5447 5444 5441 5438 5435 5432 5429 5426 5423 5421 5418 5416 5414 5411 5410 5408 5407 5406 5405 5405 5404 5403 5402 5402 5402 5402 5401 5402 5402 5403 5403 5404 5406 5407 5409
5533 5531 5530 5528 5526 5524 5522 5520 5518 5516 5514 5512 5509 5507 5504 5501 5498 5495 5492 5489 5485 5482 5479 5476 5473 5469 5466 5462 5459 5455 5451 5448 5445 5442 5439 5436 5433 5430 5426 5423 5421 5417 5415 5412 5410 5407 5406 5404 5402 5400 5399 5398 5397 5397 5396 5396 5395 5394 5394 5394 5394 5394 5395 5395 5396 5396 5397 5398 5400
5529 5527 5525 5523 5521 5519 5517 5516 5513 5511 5509 5506 5504 5501 5498 5495 5492 5489 5485 5482 5479 5475 5472 5469 5466 5462 5458 5455 5451 5447 5444 5440 5437 5434 5431 5427 5424 5421 5418 5415 5412 5409 5406 5404 5402 5400 5398 5396 5395 5393 5392 5391 5390 5390 5389 5389 5388 5387 5387 5387 5387 5387 5387 5388 5388 5388 5389 5390 5392
5525 5523 5521 5519 5517 5515 5513 5511 5508 5506 5503 5501 5498 5495 5492 5489 5486 5482 5479 5476 5472 5468 5465 5461 5458 5455 5451 5447 5443 5440 5436 5432 5429 5426 5422 5419 5416 5412 5409 5406 5404 5401 5399 5397 5395 5393 5392 5390 5389 5387 5386 5385 5384 5383 5383 5382 5382 5381 5381 5381 5380 5380 5381 5381 5381 5381 5382 5383 5384
5521 5519 5516 5515 5512 5510 5508 5506 5503 5500 5498 5495 5492 5489 5486 5483 5480 5476 5472 5469 5465 5461 5457 5454 5450 5447 5443 5440 5436 5432 5428 5425 5421 5417 5414 5411 5407 5404 5401 5399 5396 5394 5392 5390 5389 5387 5386 5385 5383 5381 5380 5379 5378 5378 5377 5376 5376 5376 5375 5375 5375 5375 5375 5375 5375 5375 5375 5376 5377
5516 5514 5512 5510 5508 5505 5503 5500 5498 5495 5492 5489 5486 5483 5480 5476 5473 5469 5466 5462 5458 5454 5450 5446 5443 5440 5436 5432 5428 5424 5421 5416 5413 5409 5406 5403 5399 5396 5394 5392 5390 5388 5386 5385 5383 5382 5381 5379 5378 5376 5375 5374 5373 5373 5372 5372 5371 5371 5370 5370 5370 5370 5369 5369 5369 5369 5369 5370 5371
5512 5510 5508 5505 5503 5501 5498 5495 5492 5489 5486 5483 5480 5477 5474 5470 5466 5463 5459 5455 5451 5447 5443 5439 5436 5432 5428 5425 5421 5417 5413 5409 5405 5401 5398 5395 5392 5390 5388 5386 5384 5382 5381 5380 5378 5377 5376 5374 5373 5372 5371 5370 5369 5369 5368 5367 5367 5366 5366 5366 5365 5365 5365 5364 5364 5364 5364 5364 5365
5507 5505 5503 5501 5498 5495 5492 5490 5487 5484 5481 5477 5474 5471 5467 5463 5460 5456 5452 5448 5444 5440 5436 5432 5428 5425 5421 5417 5413 5409 5405 5401 5398 5394 5391 5389 5386 5384 5382 5380 5379 5377 5376 5375 5374 5372 5371 5370 5369 5368 5367 5366 5366 5365 5364 5363 5363 5362 5362 5361 5361 5361 5360 5360 5359 5359 5359 5359 5359
5503 5500 5498 5495 5493 5490 5487 5484 5481 5478 5474 5471 5467 5464 5460 5457 5453 5449 5445 5441 5437 5433 5429 5425 5421 5417 5413 5409 5405 5401 5397 5394 5391 5388 5385 5383 5381 5379 5377 5376 5374 5373 5372 5371 5370 5369 5367 5366 5366 5365 5364 5363 5362 5361 5361 5360 5359 5359 5358 5358 5357 5356 5356 5356 5355 5355 5354 5354 5354
5498 5495 5493 5490 5487 5484 5481 5478 5475 5471 5468 5465 5461 5457 5454 5450 5446 5443 5439 5435 5431 5426 5422 5418 5414 5409 5405 5401 5397 5394 5391 5388 5385 5383 5381 5378 5376 5374 5373 5371 5370 5369 5368 5367 5366 5365 5364 5363 5362 5361 5360 5359 5359 5358 5357 5356 5356 5355 5355 5354 5354 5353 5353 5352 5352 5351 5351 5351 5350
5493 5490 5487 5485 5481 5478 5475 5472 5468 5465 5462 5458 5455 5451 5447 5443 5440 5436 5432 5428 5424 5419 5415 5410 5406 5402 5398 5394 5391 5387 5384 5382 5380 5378 5376 5374 5372 5370 5369 5367 5366 5366 5365 5364 5363 5361 5361 5360 5359 5358 5357 5356 5355 5355 5354 5353 5352 5352 5351 5351 5351 5350 5350 5349 5349 5348 5348 5347 5347
5488 5485 5482 5479 5476 5472 5469 5466 5462 5459 5456 5452 5448 5444 5441 5436 5433 5429 5425 5421 5416 5412 5408 5403 5399 5395 5391 5388 5385 5381 5379 5377 5375 5373 5372 5370 5368 5367 5365 5364 5363 5362 5361 5361 5359 5358 5357 5356 5355 5354 5353 5353 5352 5351 5351 5350 5349 5349 5348 5348 5347 5347 5346 5346 5346 5345 5345 5344 5343
5482 5479 5476 5473 5470 5466 5463 5460 5456 5453 5449 5446 5442 5438 5434 5430 5426 5422 5418 5414 5410 5405 5401 5396 5392 5389 5385 5382 5379 5377 5374 5372 5371 5369 5367 5366 5365 5364 5362 5361 5360 5359 5358 5357 5356 5355 5354 5353 5352 5351 5350 5350 5349 5348 5348 5347 5346 5346 5345 5345 5344 5344 5343 5342 5342 5341 5341 5340 5340
5477 5474 5471 5467 5464 5461 5457 5453 5450 5446 5442 5439 5435 5431 5427 5423 5419 5415 5411 5407 5402 5398 5394 5390 5386 5383 5380 5377 5375 5372 5370 5368 5366 5365 5364 5363 5361 5361 5359 5358 5357 5356 5355 5354 5353 5352 5351 5350 5349 5348 5347 5346 5346 5345 5345 5344 5343 5343 5342 5341 5341 5340 5340 5339 5338 5338 5337 5337 5336
5471 5468 5465 5462 5459 5455 5451 5447 5444 5440 5436 5432 5429 5425 5421 5417 5413 5408 5404 5400 5396 5391 5387 5384 5381 5377 5375 5372 5370 5368 5366 5365 5363 5361 5360 5359 5358 5357 5356 5355 5354 5353 5352 5351 5350 5349 5348 5347 5346 5345 5344 5343 5342 5342 5341 5341 5340 5339 5339 5338 5337 5337 5336 5335 5335 5334 5334 5333 5332
5466 5463 5460 5456 5453 5449 5446 5442 5438 5434 5430 5426 5422 5418 5415 5411 5406 5402 5398 5393 5389 5385 5382 5378 5375 5373 5371 5368 5366 5365 5363 5361 5360 5358 5357 5356 5356 5355 5353 5352 5351 5350 5349 5348 5346 5346 5345 5344 5343 5342 5341 5340 5339 5338 5338 5337 5336 5336 5335 5334 5333 5332 5332 5331 5331 5330 5330 5329 5329
5460 5457 5454 5451 5447 5444 5440 5436 5432 5428 5424 5420 5416 5412 5408 5404 5400 5396 5391 5387 5383 5380 5376 5373 5371 5369 5366 5365 5363 5361 5360 5358 5356 5355 5354 5353 5352 5351 5351 5349 5348 5347 5346 5345 5344 5343 5342 5341 5340 5339 5338 5337 5336 5335 5334 5333 5332 5331 5330 5329 5329 5328 5327 5327 5327 5326 5326 5325 5325
5455 5451 5448 5445 5441 5438 5434 5430 5426 5422 5419 5414 5410 5406 5402 5398 5393 5389 5385 5381 5378 5375 5372 5369 5367 5365 5363 5361 5359 5358 5356 5355 5354 5352 5351 5351 5350 5349 5348 5346 5346 5344 5343 5342 5341 5340 5339 5338 5337 5336 5335 5334 5333 5331 5330 5329 5327 5326 5325 5325 5324 5324 5323 5323 5323 5322 5322 5321 5321
5449 5446 5442 5439 5436 5432 5429 5425 5421 5417 5413 5409 5404 5400 5396 5391 5387 5383 5379 5376 5373 5370 5368 5366 5363 5361 5360 5358 5356 5355 5354 5352 5351 5350 5349 5347 5346 5346 5345 5344 5343 5341 5340 5339 5338 5337 5336 5335 5334 5333 5332 5331 5330 5328 5326 5325 5323 5322 5321 5321 5320 5320 5319 5319 5319 5318 5318 5318 5317
5443 5440 5437 5434 5430 5426 5423 5419 5416 5411 5407 5403 5399 5394 5390 5386 5381 5378 5374 5371 5368 5366 5364 5362 5360 5358 5356 5355 5354 5352 5351 5350 5349 5347 5346 5345 5344 5343 5342 5341 5340 5339 5337 5336 5336 5334 5333 5332 5331 5330 5329 5327 5326 5324 5323 5321 5320 5319 5318 5317 5317 5316 5316 5315 5315 5315 5314 5314 5313
5438 5435 5431 5428 5425 5421 5418 5414 5410 5406 5402 5397 5393 5389 5384 5380 5376 5373 5370 5367 5365 5363 5361 5359 5357 5355 5354 5352 5351 5350 5348 5347 5346 5345 5344 5342 5341 5340 5339 5338 5337 5336 5335 5334 5333 5332 5331 5329 5328 5327 5326 5324 5323 5321 5320 5318 5316 5316 5315 5314 5314 5313 5312 5312 5311 5311 5310 5310 5309
5433 5430 5426 5423 5420 5416 5412 5408 5405 5401 5396 5392 5388 5383 5379 5375 5371 5368 5366 5363 5361 5360 5358 5356 5354 5352 5351 5349 5348 5347 5346 5345 5344 5342 5341 5340 5338 5337 5337 5336 5335 5333 5332 5331 5330 5329 5328 5326 5325 5324 5322 5321 5319 5318 5316 5315 5314 5312 5312 5311 5311 5310 5309 5308 5307 5307 5306 5306 5305
5427 5424 5421 5418 5414 5411 5407 5403 5399 5395 5391 5386 5382 5378 5374 5371 5367 5364 5362 5360 5358 5356 5355 5353 5351 5350 5348 5347 5346 5345 5344 5342 5341 5340 5338 5337 5336 5335 5334 5333 5332 5331 5330 5329 5327 5326 5325 5324 5322 5321 5319 5318 5316 5315 5313 5312 5311 5310 5309 5308 5307 5307 5306 5305 5304 5303 5303 5302 5302
5422 5419 5416 5412 5409 5406 5402 5398 5394 5390 5385 5381 5377 5373 5370 5366 5364 5361 5359 5356 5355 5354 5352 5351 5349 5347 5346 5345 5344 5343 5341 5340 5339 5337 5336 5335 5334 5333 5332 5331 5330 5329 5327 5326 5325 5324 5322 5321 5319 5318 5316 5315 5314 5312 5311 5309 5308 5307 5306 5305 5304 5303 5303 5302 5301 5300 5300 5299 5299
5417 5414 5410 5407 5404 5400 5396 5392 5388 5384 5380 5376 5372 5369 5366 5363 5360 5358 5356 5354 5352 5351 5349 5348 5346 5345 5344 5342 5341 5341 5339 5338 5336 5335 5334 5332 5331 5330 5329 5328 5327 5326 5325 5324 5322 5321 5320 5318 5317 5315 5314 5313 5311 5310 5308 5307 5305 5304 5302 5301 5301 5300 5299 5298 5297 5297 5296 5296 5295
5412 5409 5405 5402 5398 5395 5391 5387 5383 5379 5375 5371 5368 5365 5361 5359 5357 5355 5352 5351 5349 5348 5346 5345 5344 5343 5341 5340 5339 5338 5337 5336 5334 5332 5331 5330 5329 5328 5327 5326 5325 5324 5322 5321 5320 5318 5317 5316 5314 5313 5311 5310 5309 5307 5306 5304 5302 5300 5299 5298 5296 5296 5295 5295 5294 5293 5293 5292 5292
5407 5404 5401 5397 5393 5390 5386 5382 5378 5374 5370 5366 5363 5360 5358 5356 5354 5351 5350 5348 5346 5345 5344 5343 5341 5340 5339 5338 5337 5336 5335 5334 5332 5331 5329 5328 5327 5326 5324 5323 5322 5321 5320 5319 5317 5316 5315 5313 5311 5310 5309 5307 5306 5304 5302 5301 5299 5297 5295 5294 5292 5292 5291 5291 5290 5290 5290 5289 5289
5403 5399 5396 5392 5388 5384 5380 5376 5373 5369 5366 5362 5359 5356 5354 5352 5351 5349 5347 5346 5344 5343 5341 5340 5339 5338 5337 5336 5335 5334 5333 5332 5330 5328 5327 5326 5324 5323 5322 5321 5320 5319 5318 5316 5315 5314 5312 5311 5309 5307 5306 5305 5303 5301 5299 5297 5295 5293 5291 5290 5289 5288 5287 5287 5286 5286 5286 5286 5286